Regional Weather Roundup
Issued by NWS

Home | Current Version | Previous Version | Graphics & Text | Print | Product List | Glossary On
Versions: 1 2 3 4 5 6 7 8 9 10 11 12 13 14 15 16 17 18 19 20 21 22 23 24 25 26 27 28 29 30 31 32 33 34 35 36 37 38 39 40 41 42 43 44 45 46 47 48 49 50
000
ASUS43 KOAX 022210
RWRNE

WEATHER ROUNDUP FOR NEBRASKA
NATIONAL WEATHER SERVICE OMAHA NE
500 PM CDT WED SEP 02 2015

NOTES: SATELLITE DATA IS BEING USED TO AUGMENT CLOUD COVER ABOVE
       12000 FEET.
       "FAIR" INDICATES FEW OR NO CLOUDS BELOW 12,000 FEET WITH NO
       SIGNIFICANT WEATHER AND/OR OBSTRUCTIONS TO VISIBILITY.

  * THESE STATIONS DO NOT REPORT WEATHER SUCH AS RAIN...SNOW OR FOG.

NEZ001>004-019>022-054>056-022300-
NEBRASKA PANHANDLE

CITY           SKY/WX    TMP DP  RH WIND       PRES   REMARKS
SCOTTSBLUFF    SUNNY     94  39  14 SW5       29.89F HX  90
ALLIANCE       SUNNY     95  42  16 W12       29.89F HX  91
CHADRON        SUNNY     98  43  15 S5        29.81F HX  94
KIMBALL        SUNNY     90  39  16 NW3       29.96F
SIDNEY         MOSUNNY   91  43  18 CALM      29.94F
$$

NEZ057>060-069>072-079>082-022300-
SOUTHWEST NEBRASKA

CITY           SKY/WX    TMP DP  RH WIND       PRES   REMARKS
NORTH PLATTE   SUNNY     95  55  26 SE7       29.84F HX  93
IMPERIAL       MOSUNNY   94  52  24 SE7       29.87F HX  91
LEXINGTON      MOSUNNY   93  62  34 SE12      29.84F HX  93
MCCOOK         SUNNY     99  55  23 SE8       29.83F HX  97
OGALLALA       SUNNY     97  48  18 S10       29.87F HX  94
$$

NEZ005>010-023>029-035>040-094-022300-
NORTH CENTRAL NEBRASKA

CITY           SKY/WX    TMP DP  RH WIND       PRES   REMARKS
VALENTINE      SUNNY     99  44  15 S10       29.78F HX  95
AINSWORTH      SUNNY    100  43  14 SW8       29.80F HX  95
BROKEN BOW     MOSUNNY   95  56  26 S14       29.84F HX  93
O`NEILL        SUNNY     94  67  41 SE15      29.81S HX  97
ORD            SUNNY     95  62  33 S13G18    29.81S HX  96
THEDFORD       SUNNY     97  48  19 S8        29.84S HX  93
$$

NEZ041-046>049-061>064-073>077-083>087-022300-
SOUTH CENTRAL NEBRASKA

CITY           SKY/WX    TMP DP  RH WIND       PRES   REMARKS
GRAND ISLAND   MOSUNNY   95  62  33 S13       29.83F HX  96
AURORA         SUNNY     92  65  40 S14       29.83F HX  93
HASTINGS       MOSUNNY   94  63  35 S10       29.84F HX  95
HEBRON         SUNNY     94  58  29 S13G22    29.83F HX  93
HOLDREGE       MOSUNNY   93  58  31 SE9       29.84F HX  92
KEARNEY *      MOSUNNY   93  63  36 S15       29.84S HX  94
YORK           SUNNY     91  68  46 S14       29.84F HX  95
$$

NEZ011>018-030>034-042>045-022300-
NORTHEAST NEBRASKA

CITY           SKY/WX    TMP DP  RH WIND       PRES   REMARKS
NORFOLK        SUNNY     89  70  53 S17       29.82F HX  94
ALBION         SUNNY     88  69  52 S13       29.83F HX  92
BLAIR          SUNNY     87  72  61 S12       29.85F HX  92
COLUMBUS *     SUNNY     90  70  51 S7        29.82F HX  95
FREMONT        SUNNY     88  70  55 SE9       29.84F HX  93
TEKAMAH        SUNNY     88  73  61 S12       29.83F HX  95
WAYNE          SUNNY     87  73  64 S12       29.83F HX  94
$$

NEZ050>053-065>068-078-088>093-022300-
SOUTHEAST NEBRASKA

CITY           SKY/WX    TMP DP  RH WIND       PRES   REMARKS
LINCOLN        SUNNY     93  68  43 S17       29.83F HX  97
OMAHA EPPLEY   MOSUNNY   90  70  51 S17       29.84F HX  95
BEATRICE       SUNNY     92  67  43 S14G21    29.85S HX  95
FALLS CITY     SUNNY     90  70  51 S18G26    29.87F HX  95
NEBRASKA CITY  SUNNY     90  60  36 S16G22    29.86F
PLATTSMOUTH    SUNNY     87  69  54 S16       29.86S HX  90
$$

NEZ044-045-051>053-067-022300-
OMAHA AREA

CITY           SKY/WX    TMP DP  RH WIND       PRES   REMARKS
OMAHA EPPLEY   MOSUNNY   90  70  51 S17       29.84F HX  95
BLAIR          SUNNY     87  72  61 S12       29.85F HX  92
FREMONT        SUNNY     88  70  55 SE9       29.84F HX  93
MILLARD        SUNNY     90  73  56 S10       29.84F HX  97
OFFUTT AFB     SUNNY     90  71  53 S14       29.84F HX  96
PLATTSMOUTH    SUNNY     87  69  54 S16       29.86S HX  90
WAHOO          FAIR      89  72  57 S9        29.83F HX  96
$$



USA.gov is the U.S. government's official web portal to all federal, state and local government web resources and services.